Cadjehoun Airport

Jump to: basic info | weather | frequencies | runways | comments

Related pages: nearby airports | nearby navaids | notams | map

Basic information (top)

Codes: COO DBBB
Location: lon 6.357230, lat 2.384350, elev 19 ft / 6 m msl
Status: medium_airport
Scheduled airline service: yes
Links: Wikipedia Mobile

Weather (top)

Current conditions (rec'd 2014/09/01 07:00Z):

DBBB 010700Z 22010KT 8000 BKN010 BKN100 25/25 Q1013 NOSIG

Airport forecast (rec'd 2014/09/01 06:12Z):

TAF TAF DBBB 010500Z 0106/0212 22012KT 9999 SCT012 
      TEMPO 0106/0109 BKN010 
      BECMG 0110/0112 SCT012 FEW023CB 
      TEMPO 0113/0120 TS BKN010 FEW023CB PROB30 0113/0119 06015G30KT 4000 TSRA 
      BECMG 0122/0124 SCT012

Frequencies (top)

Verify before use: may be inaccurate or out of date.

A/G: 658.6 MHz (A/G VOICE RDO)
APP: 125.9 MHz (APP)
TWR: 125.9 MHz (TWR)

Runways (top)

06/24: 7,874 x 148 ft (2,400 x 45 m) — paved — lighted — threshold 06 displaced 125 ft (38 m)

Latest comments (top)

No comments yet for Cadjehoun Airport

More... (top)

See also NOTAMs and nearby airports and navaids, or visit the Cadjehoun Airport page at the main OurAirports website..